Weather History for KMGN - January, 2013

Change the Weather History Date:

Tuesday, January 1, 2013

  Actual Average (KPLN) Record (KPLN)
Temperature  
Mean Temperature 20 °F -  
Max Temperature 25 °F 27 °F 46 °F (2007)
Min Temperature 16 °F 13 °F -25 °F (1999)
Degree Days  
Heating Degree Days 44    
Moisture  
Dew Point 14 °F    
Average Humidity 76    
Maximum Humidity 88    
Minimum Humidity 64    
Precipitation  
Precipitation 0.00 in - - ()
Sea Level Pressure  
Sea Level Pressure 30.02 in    
Wind  
Wind Speed 6 mph (West)    
Max Wind Speed 20 mph    
Max Gust Speed 28 mph    
Visibility 8 miles    
Events Snow    
Averages and records for this station are not official NWS values.
T = Trace of Precipitation, MM = Missing Value Source: NWS Daily Summary

Daily Weather History Graph

Daily Weather History Graph

Search for Another Location

Airport or City:

Trip Planner

Search our weather history database for the weather conditions in past years. The results will help you decide how hot, cold, wet, or windy it might be!

Date:

Astronomy

Jan. 01, 2013 Rise Set
Actual Time 8:19 AM EST 5:07 PM EST
Civil Twilight 7:45 AM EST 5:41 PM EST
Nautical Twilight 7:08 AM EST 6:18 PM EST
Astronomical Twilight 6:32 AM EST 6:54 PM EST
Moon 9:51 PM EST (1/1) 10:18 AM EST (1/1)
Length of Visible Light 9h 55m
Length of Day
8h 48m
Waning Gibbous, 83% of the Moon is Illuminated
Jan 1
Waning Gibbous
Jan 4
Last Quarter
Jan 11
New
Jan 18
First Quarter
Jan 26
Full

Hourly Weather History & Observations

Time (EST) Temp. Windchill Dew Point Humidity Pressure Visibility Wind Dir Wind Speed Gust Speed Precip Events Conditions
12:15 AM 19.2 °F 11.3 °F 11.5 °F 72% 30.01 in 10.0 mi West 5.8 mph - N/A   Overcast
12:35 AM 19.2 °F 12.5 °F 11.3 °F 71% 30.01 in 10.0 mi West 4.6 mph - N/A Snow Light Snow
12:54 AM 19.2 °F 12.5 °F 11.1 °F 71% 30.01 in 10.0 mi West 4.6 mph - N/A   Overcast
1:15 AM 19.2 °F 14.1 °F 10.4 °F 69% 30.00 in 10.0 mi West 3.5 mph - N/A   Overcast
1:35 AM 19.2 °F 12.5 °F 10.8 °F 70% 30.01 in 10.0 mi WNW 4.6 mph - N/A   Overcast
1:54 AM 19.2 °F 11.3 °F 10.9 °F 70% 30.01 in 7.0 mi WNW 5.8 mph - N/A Snow Light Snow
2:15 AM 19.2 °F 14.1 °F 11.5 °F 72% 30.02 in 10.0 mi West 3.5 mph - N/A Snow Light Snow
2:35 AM 19.2 °F 12.5 °F 11.7 °F 72% 30.03 in 10.0 mi West 4.6 mph - N/A Snow Light Snow
2:54 AM 19.2 °F 12.5 °F 11.5 °F 72% 30.04 in 10.0 mi West 4.6 mph - N/A   Overcast
3:15 AM 19.2 °F 14.1 °F 11.3 °F 71% 30.04 in 10.0 mi West 3.5 mph - N/A   Overcast
3:34 AM 19.2 °F 12.5 °F 10.9 °F 70% 30.04 in 7.0 mi West 4.6 mph - N/A Snow Light Snow
3:54 AM 19.0 °F 12.3 °F 11.7 °F 73% 30.04 in 7.0 mi WNW 4.6 mph - N/A Snow Light Snow
4:15 AM 18.0 °F - 13.5 °F 83% 30.05 in 2.5 mi Calm Calm - N/A Snow Light Snow
4:34 AM 18.0 °F - 14.0 °F 84% 30.05 in 2.5 mi Calm Calm - N/A Snow Light Snow
4:54 AM 18.0 °F - 14.5 °F 86% 30.05 in 3.0 mi Calm Calm - N/A Snow Light Snow
5:15 AM 18.0 °F - 14.4 °F 86% 30.06 in 4.0 mi Calm Calm - N/A Snow Light Snow
5:34 AM 17.6 °F - 14.2 °F 86% 30.06 in 4.0 mi Calm Calm - N/A Snow Light Snow
6:15 AM 17.1 °F - 13.6 °F 86% 30.06 in 10.0 mi Calm Calm - N/A   Overcast
6:34 AM 17.1 °F - 13.5 °F 86% 30.07 in 10.0 mi Calm Calm - N/A   Overcast
7:15 AM 16.2 °F 10.6 °F 12.6 °F 86% 30.07 in 10.0 mi ENE 3.5 mph - N/A   Overcast
7:34 AM 16.5 °F - 13.1 °F 86% 30.07 in 10.0 mi Calm Calm - N/A   Overcast
8:15 AM 16.7 °F 11.2 °F 13.6 °F 88% 30.09 in 10.0 mi North 3.5 mph - N/A   Overcast
8:34 AM 17.1 °F 8.7 °F 13.6 °F 86% 30.08 in 10.0 mi NNE 5.8 mph - N/A   Overcast
8:55 AM 17.8 °F 10.9 °F 14.2 °F 86% 30.08 in 10.0 mi NNE 4.6 mph - N/A   Overcast
9:15 AM 18.0 °F 11.1 °F 14.0 °F 84% 30.08 in 10.0 mi ENE 4.6 mph - N/A   Overcast
9:34 AM 18.0 °F - 13.8 °F 84% 30.08 in 10.0 mi Calm Calm - N/A   Overcast
9:55 AM 18.0 °F - 14.0 °F 84% 30.09 in 10.0 mi Calm Calm - N/A   Overcast
10:15 AM 18.0 °F - 14.0 °F 84% 30.09 in 10.0 mi Calm Calm - N/A   Overcast
10:34 AM 18.1 °F - 13.6 °F 83% 30.09 in 7.0 mi Calm Calm - N/A Snow Light Snow
10:55 AM 18.5 °F - 14.0 °F 83% 30.09 in 4.0 mi Calm Calm - N/A Snow Light Snow
11:15 AM 19.2 °F - 14.4 °F 81% 30.09 in 10.0 mi Calm Calm - N/A Snow Light Snow
11:34 AM 19.8 °F - 14.9 °F 81% 30.08 in 10.0 mi Calm Calm - N/A   Overcast
11:55 AM 21.2 °F 12.6 °F 11.5 °F 66% 30.07 in 10.0 mi West 6.9 mph - N/A   Overcast
12:15 PM 21.4 °F 15.1 °F 12.2 °F 68% 30.06 in 10.0 mi WNW 4.6 mph - N/A Snow Light Snow
12:34 PM 21.2 °F 12.6 °F 11.5 °F 66% 30.04 in 10.0 mi WNW 6.9 mph - N/A   Overcast
12:55 PM 21.9 °F 14.5 °F 12.2 °F 66% 30.03 in 10.0 mi West 5.8 mph - N/A   Overcast
1:15 PM 22.1 °F 14.7 °F 14.5 °F 73% 30.02 in 4.0 mi West 5.8 mph - N/A Snow Light Snow
1:34 PM 21.2 °F 11.7 °F 15.4 °F 78% 30.01 in 3.0 mi WNW 8.1 mph - N/A Snow Light Snow
1:55 PM 22.3 °F 13.0 °F 16.7 °F 79% 30.00 in 5.0 mi West 8.1 mph - N/A Snow Light Snow
2:15 PM 22.1 °F 13.7 °F 16.2 °F 78% 29.99 in 5.0 mi West 6.9 mph - N/A Snow Light Snow
2:34 PM 22.3 °F 12.2 °F 15.8 °F 76% 29.99 in 7.0 mi WNW 9.2 mph - N/A Snow Light Snow
2:55 PM 22.5 °F 12.4 °F 16.0 °F 76% 29.99 in 4.0 mi West 9.2 mph - N/A Snow Light Snow
3:14 PM 21.9 °F 13.4 °F 16.7 °F 80% 29.99 in 1.5 mi West 6.9 mph - N/A Snow Light Snow
3:34 PM 23.0 °F 13.9 °F 15.4 °F 73% 29.99 in 10.0 mi West 8.1 mph 17.3 mph N/A Snow Light Snow
3:55 PM 22.3 °F 13.0 °F 16.9 °F 80% 29.99 in 2.5 mi West 8.1 mph - N/A Snow Light Snow
4:14 PM 23.0 °F 10.6 °F 15.1 °F 72% 29.99 in 10.0 mi WSW 13.8 mph 19.6 mph N/A Snow Light Snow
4:34 PM 23.0 °F 12.4 °F 15.8 °F 74% 29.99 in 7.0 mi WSW 10.4 mph 16.1 mph N/A Snow Light Snow
4:55 PM 23.2 °F 12.0 °F 16.3 °F 75% 29.99 in 7.0 mi West 11.5 mph 18.4 mph N/A Snow Light Snow
5:14 PM 23.4 °F 10.1 °F 17.2 °F 77% 29.99 in 7.0 mi SW 16.1 mph 24.2 mph N/A Snow Light Snow
5:34 PM 23.0 °F 10.1 °F 16.7 °F 77% 29.99 in 7.0 mi SW 15.0 mph 23.0 mph N/A Snow Light Snow
5:55 PM 23.0 °F 10.1 °F 17.2 °F 79% 29.99 in 7.0 mi SW 15.0 mph 23.0 mph N/A Snow Light Snow
6:14 PM 23.2 °F 9.0 °F 16.9 °F 77% 29.98 in 7.0 mi SW 18.4 mph 26.5 mph N/A   Overcast
6:34 PM 23.0 °F 8.3 °F 16.7 °F 77% 29.98 in 10.0 mi SW 19.6 mph 26.5 mph N/A   Overcast
6:55 PM 23.0 °F 9.2 °F 16.5 °F 76% 29.98 in 10.0 mi SW 17.3 mph 24.2 mph N/A   Overcast
7:14 PM 23.0 °F 9.2 °F 16.5 °F 76% 29.98 in 10.0 mi SW 17.3 mph 26.5 mph N/A   Overcast
7:34 PM 23.0 °F 9.2 °F 16.7 °F 77% 29.98 in 10.0 mi SW 17.3 mph 27.6 mph N/A   Overcast
7:55 PM 23.4 °F 11.6 °F 16.7 °F 76% 29.97 in 10.0 mi WSW 12.7 mph 27.6 mph N/A   Overcast
8:14 PM 25.2 °F 13.3 °F 18.5 °F 76% 29.97 in 10.0 mi WSW 13.8 mph 26.5 mph N/A   Overcast
8:35 PM 24.6 °F 12.7 °F 17.2 °F 74% 29.97 in 10.0 mi West 13.8 mph 23.0 mph N/A   Overcast
8:55 PM 24.6 °F 13.2 °F 16.9 °F 72% 29.96 in 10.0 mi West 12.7 mph 20.7 mph N/A   Overcast
9:14 PM 25.0 °F 13.1 °F 16.7 °F 71% 29.96 in 10.0 mi West 13.8 mph 20.7 mph N/A   Overcast
9:35 PM 24.6 °F 14.4 °F 16.7 °F 72% 29.96 in 10.0 mi West 10.4 mph 20.7 mph N/A   Overcast
9:55 PM 24.4 °F 14.9 °F 15.3 °F 68% 29.96 in 10.0 mi West 9.2 mph 19.6 mph N/A   Overcast
10:14 PM 23.4 °F 13.5 °F 13.8 °F 67% 29.96 in 10.0 mi West 9.2 mph 20.7 mph N/A   Overcast
10:35 PM 23.4 °F 15.2 °F 13.6 °F 66% 29.96 in 10.0 mi West 6.9 mph 16.1 mph N/A   Overcast
10:55 PM 23.5 °F 14.5 °F 13.6 °F 66% 29.96 in 10.0 mi West 8.1 mph 18.4 mph N/A   Overcast
11:14 PM 24.3 °F 13.3 °F 14.2 °F 65% 29.96 in 10.0 mi West 11.5 mph 21.9 mph N/A   Overcast
11:35 PM 24.4 °F 16.5 °F 14.5 °F 66% 29.96 in 10.0 mi West 6.9 mph 17.3 mph N/A   Overcast
11:55 PM 23.4 °F 12.8 °F 12.9 °F 64% 29.96 in 10.0 mi West 10.4 mph 16.1 mph N/A   Overcast